Flag for U.S.A. Weather past 2 weeks in Talkeetna, Alaska, U.S.A.

Now
49 °F

Rain. Fog.


Feels Like: 49 °F
Forecast: 45 / 64 °F
Wind: No wind

Location: Talkeetna Weather Reporting Station

Current Time: Jul 2, 2015 at 1:51:38 AM

Latest Report: Jul 2, 2015 at 12:53 AM


Visibility: 6 mi

Pressure: 30.01 "Hg

Humidity: 100%

Dew point: 49 °F

Location of TalkeetnaLocation

Historic Weather in Talkeetna — Graph

°F

Talkeetna temperature yesterday

Maximum temperature yesterday: 55 °F (at 12:53 AM)
Minimum temperature yesterday: 49 °F (at 11:53 PM)
Average temperature yesterday: 52 °F

Past Weeks' High & Low Weather Summary

 TemperatureHumidityPressure
High85 °F (Jun 17, 7:53 PM)100% (Jun 18, 4:53 AM)30.19 "Hg (Jun 18, 4:53 AM)
Low49 °F (Jun 28, 3:53 AM)10% (Jun 17, 4:53 PM)29.71 "Hg (Jun 18, 8:53 PM)
Average62 °F67%29.96 "Hg
* Reported Jun 17 12:53 AM — Jul 2 12:53 AM, Talkeetna, Weather by CustomWeather, © 2015

Note: Actual official high and low records may vary slightly from our data, if they occured in-between our weather recording intervals... More about our weather records

Advertising

Talkeetna weather history for previous 24 hours

 ConditionsComfort  
Time TempWeatherWind HumidityBarometerVisibility
12:53 AM
Thu, Jul 2
49 °FRain. Fog.No wind100%30.01 "Hg6 mi
11:53 PM
Wed, Jul 1
49 °FLight rain. Mostly cloudy.No wind100%30.02 "Hg7 mi
10:53 PM50 °FLight rain. Mostly cloudy.No wind100%30.03 "Hg10 mi
9:53 PM50 °FLight rain. Fog.No wind100%30.04 "Hg5 mi
8:53 PM51 °FLight rain. Mostly cloudy.3 mph100%30.06 "Hg10 mi
7:53 PM51 °FLight rain. Overcast.3 mph100%30.08 "Hg9 mi
7:03 PM52 °FLight rain. Mostly cloudy.5 mph93%30.09 "Hg10 mi
6:53 PM52 °FLight rain. Mostly cloudy.3 mph100%30.10 "Hg9 mi
5:53 PM52 °FLight rain. Overcast.3 mph100%30.11 "Hg10 mi
4:53 PM53 °FLight rain. Overcast.3 mph96%30.14 "Hg10 mi
3:53 PM52 °FLight rain. Overcast.No wind100%30.16 "Hg8 mi
2:53 PM52 °FLight rain. Overcast.No wind97%30.17 "Hg10 mi
1:53 PM51 °FLight rain. Mostly cloudy.No wind100%30.18 "Hg8 mi
12:53 PM53 °FLight rain. Overcast.6 mph93%30.18 "Hg10 mi
11:53 AM52 °FLight rain. Overcast.3 mph97%30.18 "Hg10 mi
10:53 AM52 °FLight rain. Overcast.6 mph93%30.19 "Hg10 mi
9:53 AM52 °FLight rain. Overcast.No wind100%30.19 "Hg10 mi
8:53 AM52 °FLight rain. More clouds than sun.No wind97%30.19 "Hg10 mi
7:53 AM52 °FOvercast.6 mph86%30.19 "Hg10 mi
6:53 AM52 °FMostly cloudy.6 mph86%30.19 "Hg10 mi
5:53 AM52 °FMore clouds than sun.6 mph86%30.19 "Hg10 mi
4:53 AM52 °FMostly cloudy.6 mph86%30.19 "Hg10 mi
3:53 AM53 °FMostly cloudy.7 mph83%30.19 "Hg10 mi
2:53 AM53 °FOvercast.3 mph83%30.19 "Hg10 mi
1:53 AM54 °FLight rain. Mostly cloudy.3 mph86%30.19 "Hg10 mi
Weather by CustomWeather, © 2015

See weather overviewHow to use our weather pages